Location: UBC Liquid-Mirror Observatory
(49.2876°N, 122.5728°W)
Time: 20:45:08
(UTC-07:00)

Amateur Radio Satellites - All Passes

Search period start: 04 September 2015 20:15
Search period end: 05 September 2015 20:15
Location: UBC Liquid-Mirror Observatory, 49.2876°N, 122.5728°W

Satellite Date Start Highest point End Downlink Frequencies (MHz)
Time Altitude Azimuth
SEEDS 04 Sep 20:19:44 20:23:39 37° 69° (ENE) 20:27:35 437.485
AIST 1 04 Sep 20:20:59 20:24:13 20° 273° (W) 20:27:21
UWE-3 04 Sep 20:25:12 20:28:02 16° 59° (ENE) 20:31:01 435.000/436.395/437.385
CUBEBUG 2 04 Sep 20:26:58 20:30:25 21° 61° (ENE) 20:34:01 437.445
COMPASS 1 04 Sep 20:34:03 20:37:59 41° 70° (ENE) 20:41:58 437.405
DELFI C3 04 Sep 20:34:50 20:36:31 13° 59° (ENE) 20:38:21 145.870
AAUSAT CUBESAT 2 04 Sep 20:40:15 20:44:10 40° 70° (ENE) 20:48:07 437.432
Cosmos 2491 04 Sep 20:44:41 20:53:25 72° 264° (W) 21:02:07 435.465 / 435.565
Oscar 11 04 Sep 20:50:13 20:53:51 27° 65° (ENE) 20:57:33 145.826/435.025
AIST 2 04 Sep 20:50:22 20:50:44 10° 7° (N) 20:51:09 435.215
DOVE 4 04 Sep 20:52:32 20:57:18 65° 260° (W) 21:02:24 437.250
YUBILEINY 04 Sep 20:54:56 21:03:24 56° 91° (E) 21:11:59 435.215
BRITE-PL 04 Sep 20:56:23 21:00:12 25° 270° (W) 21:04:12 437.365/2234.400
BEESAT 3 04 Sep 21:01:29 21:04:21 18° 29° (NNE) 21:07:14 437.485
GOMX 1 04 Sep 21:01:36 21:05:58 35° 266° (W) 21:10:35 467.674
CINEMA 3 04 Sep 21:05:00 21:09:50 82° 76° (ENE) 21:14:52 145.822/145.860
STRAND 1 04 Sep 21:10:09 21:15:05 49° 292° (WNW) 21:20:00 437.568
CUBESAT XI-V 04 Sep 21:12:01 21:14:36 15° 302° (WNW) 21:17:01 437.345
PRISM 04 Sep 21:16:07 21:20:05 45° 290° (WNW) 21:24:01 437.425
O/OREOS (USA 219) 04 Sep 21:19:42 21:21:40 12° 323° (NW) 21:23:30 437.305
BEESAT 2 04 Sep 21:20:17 21:23:21 20° 30° (NNE) 21:26:24 435.950
CUTE 1.7 + AOD 2 04 Sep 21:27:23 21:31:24 38° 263° (W) 21:35:25 437.475
AISAT 04 Sep 21:33:45 21:34:27 10° 54° (NE) 21:35:20 437.250
Cosmos 2504 04 Sep 21:38:54 21:43:26 17° 73° (ENE) 21:48:31 435.465 / 435.565
ZACube-1 04 Sep 21:42:17 21:46:47 57° 72° (ENE) 21:51:20 437.345
CANX-2 04 Sep 21:42:43 21:46:19 25° 267° (W) 21:49:52 2200.000
FUNcube-1 04 Sep 21:45:32 21:50:03 59° 72° (ENE) 21:54:36 145.935
RS-15 04 Sep 21:49:55 22:00:32 40° 15° (NNE) 22:11:41 29.354- 29.394
HUMSAT D 04 Sep 21:50:22 21:54:06 30° 66° (ENE) 21:57:54 437.325/437.525
SEEDS 04 Sep 21:56:00 21:59:33 25° 267° (W) 22:03:03 437.485
HO-68 04 Sep 21:58:15 22:04:35 32° 267° (W) 22:10:51 435.675
VELOX 1 04 Sep 21:58:19 22:01:02 17° 59° (ENE) 22:03:52 145.980
UWE-3 04 Sep 21:59:19 22:04:00 80° 257° (WSW) 22:08:44 435.000/436.395/437.385
CUBEBUG 2 04 Sep 22:02:01 22:06:42 62° 260° (W) 22:11:28 437.445
DELFI C3 04 Sep 22:06:58 22:11:02 83° 257° (WSW) 22:15:05 145.870
COMPASS 1 04 Sep 22:10:29 22:13:50 22° 268° (W) 22:17:08 437.405
50 SAT 04 Sep 22:14:09 22:17:13 22° 65° (ENE) 22:20:19 437.505
AAUSAT CUBESAT 2 04 Sep 22:16:35 22:19:57 22° 268° (W) 22:23:13 437.432
DX 1 04 Sep 22:25:27 22:29:30 40° 68° (ENE) 22:33:36 434.975-435.025
Oscar 11 04 Sep 22:25:50 22:29:55 38° 264° (W) 22:33:58 145.826/435.025
AIST 2 04 Sep 22:27:38 22:30:51 21° 30° (NNE) 22:34:04 435.215
UKube-1 04 Sep 22:30:45 22:34:47 41° 68° (ENE) 22:38:53 .
ANTELSAT 04 Sep 22:35:22 22:37:47 14° 86° (E) 22:40:20 437.575/2403.000
BEESAT 3 04 Sep 22:38:49 22:42:53 82° 47° (NE) 22:46:54 437.485
Cosmos 2491 04 Sep 22:43:33 22:48:51 17° 286° (WNW) 22:53:42 435.465 / 435.565
CINEMA 3 04 Sep 22:44:53 22:47:46 15° 275° (W) 22:50:29 145.822/145.860
YUBILEINY 04 Sep 22:52:23 23:00:38 41° 294° (WNW) 23:08:51 435.215
CUBEBUG 1 04 Sep 22:52:40 22:56:28 31° 66° (ENE) 23:00:21 437.445
BEESAT 2 04 Sep 22:57:48 23:01:55 87° 232° (SW) 23:05:57 435.950
M-CUBED/EXP-1 PRIME 04 Sep 23:05:50 23:06:55 11° 91° (E) 23:08:08 437.505
AISAT 04 Sep 23:05:50 23:10:13 66° 72° (ENE) 23:14:40 437.250
ESTCUBE 1 04 Sep 23:09:44 23:14:06 54° 71° (ENE) 23:18:30 437.505/2401.250
TISAT 1 04 Sep 23:18:02 23:19:50 13° 58° (ENE) 23:21:48 437.305
ZACube-1 04 Sep 23:20:08 23:23:31 19° 271° (W) 23:26:48 437.345
FUNcube-1 04 Sep 23:23:29 23:26:46 19° 271° (W) 23:29:57 145.935
DANDE 04 Sep 23:23:36 23:26:25 17° 80° (E) 23:29:56 436.750
UNISAT 6 04 Sep 23:24:57 23:29:17 41° 97° (E) 23:33:31 437.425
HUMSAT D 04 Sep 23:25:49 23:29:47 33° 265° (W) 23:33:43 437.325/437.525
Cosmos 2504 04 Sep 23:25:57 23:34:10 69° 94° (E) 23:42:46 435.465 / 435.565
BUGSAT 1 04 Sep 23:27:03 23:27:27 10° 84° (E) 23:28:06 437.445
VELOX 1 04 Sep 23:32:41 23:37:05 72° 258° (WSW) 23:41:33 145.980
DUCHIFAT 1 04 Sep 23:37:38 23:40:51 21° 91° (E) 23:44:07 145.980
UWE-3 04 Sep 23:40:02 23:41:23 11° 277° (W) 23:42:28 435.000/436.395/437.385
POLYITAN 1 04 Sep 23:40:35 23:44:02 23° 92° (E) 23:47:32 437.675
POPSAT HIP 1 04 Sep 23:41:18 23:44:44 23° 92° (E) 23:48:13 437.405
50 SAT 04 Sep 23:47:48 23:51:32 39° 262° (W) 23:55:15 437.505
TIGRISAT 04 Sep 23:51:29 23:56:04 72° 102° (ESE) 00:00:30 435.000
NANOSAT C BR1 04 Sep 23:56:29 00:00:20 32° 95° (E) 00:04:12 145.865
QB50P2 04 Sep 23:59:10 00:03:08 35° 96° (E) 00:07:06 145.880/145.840
CUSAT 1 05 Sep 00:01:48 00:06:20 62° 96° (E) 00:12:28 437.405
DX 1 05 Sep 00:02:17 00:05:54 25° 267° (W) 00:09:29 434.975-435.025
RS-15 05 Sep 00:03:30 00:15:14 74° 45° (NE) 00:27:28 29.354- 29.394
SPROUT 05 Sep 00:05:28 00:09:39 53° 71° (ENE) 00:13:55 437.525
AIST 2 05 Sep 00:05:44 00:09:58 86° 233° (SW) 00:14:07 435.215
UKube-1 05 Sep 00:07:31 00:11:05 24° 267° (W) 00:14:36 .
ANTELSAT 05 Sep 00:10:37 00:15:12 73° 286° (WNW) 00:19:38 437.575/2403.000
ITUPSAT 1 05 Sep 00:11:47 00:12:42 11° 53° (NE) 00:13:49 437.325
QB50P1 05 Sep 00:12:00 00:16:10 46° 99° (E) 00:20:18 145.935-145.965
BEESAT 3 05 Sep 00:18:14 00:20:16 13° 248° (WSW) 00:22:07 437.485
AUBIESAT-1 05 Sep 00:28:25 00:32:20 74° 108° (ESE) 00:35:56 437.475
CUBEBUG 1 05 Sep 00:28:54 00:32:48 32° 265° (W) 00:36:44 437.445
BEESAT 2 05 Sep 00:37:52 00:39:20 11° 249° (WSW) 00:40:36 435.950
M-CUBED/EXP-1 PRIME 05 Sep 00:38:26 00:42:24 73° 293° (WNW) 00:46:02 437.505
BEESAT 05 Sep 00:39:21 00:42:30 18° 59° (ENE) 00:45:46 436.000
AISAT 05 Sep 00:44:33 00:47:19 16° 272° (W) 00:49:57 437.250
ESTCUBE 1 05 Sep 00:48:02 00:51:20 19° 270° (W) 00:54:32 437.505/2401.250
TISAT 1 05 Sep 00:50:45 00:54:59 90° 111° (ESE) 00:59:17 437.305
SO-50 05 Sep 00:55:54 01:00:40 63° 125° (SE) 01:05:35 436.795
YUBILEINY 05 Sep 00:58:18 01:00:50 11° 323° (NW) 01:02:53 435.215
BUGSAT 1 05 Sep 00:59:22 01:03:40 86° 104° (ESE) 01:07:57 437.445
UNISAT 6 05 Sep 01:02:03 01:05:54 26° 296° (WNW) 01:09:35 437.425
DANDE 05 Sep 01:04:30 01:08:39 60° 288° (WNW) 01:14:19 436.750
SWISSCUBE 05 Sep 01:04:49 01:08:56 31° 64° (ENE) 01:13:07 437.505
DUCHIFAT 1 05 Sep 01:12:46 01:16:55 47° 290° (WNW) 01:21:00 145.980
POLYITAN 1 05 Sep 01:16:02 01:20:07 41° 291° (WNW) 01:24:09 437.675
POPSAT HIP 1 05 Sep 01:16:42 01:20:47 42° 291° (WNW) 01:24:49 437.405
Cosmos 2504 05 Sep 01:19:39 01:27:11 34° 298° (WNW) 01:34:46 435.465 / 435.565
TIGRISAT 05 Sep 01:29:18 01:32:18 17° 301° (WNW) 01:35:06 435.000
NANOSAT C BR1 05 Sep 01:32:20 01:36:08 30° 294° (WNW) 01:39:52 145.865
QB50P2 05 Sep 01:35:13 01:38:56 28° 295° (WNW) 01:42:34 145.880/145.840
PCSat 05 Sep 01:40:51 01:46:09 61° 120° (ESE) 01:51:32 145.827
SPROUT 05 Sep 01:43:01 01:46:05 18° 270° (W) 01:49:05 437.525
GONETS M04 05 Sep 01:44:56 01:51:54 29° 81° (E) 01:59:08
ITUPSAT 1 05 Sep 01:45:02 01:49:43 61° 71° (ENE) 01:54:27 437.325
CUSAT 1 05 Sep 01:45:37 01:49:43 23° 305° (NW) 01:54:37 437.405
AIST 2 05 Sep 01:46:15 01:47:54 12° 249° (WSW) 01:49:20 435.215
QB50P1 05 Sep 01:48:23 01:51:46 22° 297° (WNW) 01:55:04 145.935-145.965
ANTELSAT 05 Sep 01:49:31 01:51:12 12° 305° (NW) 01:52:40 437.575/2403.000
AUBIESAT-1 05 Sep 02:04:24 02:06:30 14° 308° (NW) 02:08:25 437.475
KKS-1 05 Sep 02:10:43 02:14:08 22° 62° (ENE) 02:17:39 437.445
Gurwin Techsat 1B 05 Sep 02:13:02 02:15:37 14° 84° (E) 02:18:27 435.225
BEESAT 05 Sep 02:15:06 02:19:51 73° 256° (WSW) 02:24:39 436.000
M-CUBED/EXP-1 PRIME 05 Sep 02:15:35 02:16:25 10° 312° (NW) 02:17:06 437.505
RS-15 05 Sep 02:16:23 02:27:14 43° 249° (WSW) 02:38:12 29.354- 29.394
O/OREOS (USA 219) 05 Sep 02:24:54 02:27:32 15° 40° (NE) 02:30:17 437.305
JAS-2 05 Sep 02:30:18 02:33:06 13° 77° (ENE) 02:36:08 435.910
TISAT 1 05 Sep 02:30:27 02:31:29 11° 275° (W) 02:32:17 437.305
Oscar 19 05 Sep 02:31:44 02:36:52 54° 100° (E) 02:41:58 437.125/150
BUGSAT 1 05 Sep 02:36:23 02:38:33 14° 302° (WNW) 02:40:34 437.445
SO-50 05 Sep 02:37:12 02:41:35 31° 326° (NW) 02:46:00 436.795
SWISSCUBE 05 Sep 02:42:14 02:46:43 39° 263° (W) 02:51:10 437.505
DANDE 05 Sep 02:52:14 02:53:44 11° 317° (NW) 02:55:04 436.750
MOZHAYETS 4 05 Sep 02:59:11 03:01:04 13° 56° (ENE) 03:03:08
Cosmos 2499 05 Sep 03:10:07 03:17:01 28° 80° (E) 03:24:16 435.465 / 435.565
STARS 05 Sep 03:15:15 03:19:33 53° 70° (ENE) 03:23:54 437.465
ITUPSAT 1 05 Sep 03:24:37 03:28:04 19° 270° (W) 03:31:24 437.325
PCSat 05 Sep 03:25:06 03:29:58 32° 321° (NW) 03:34:48 145.827
GONETS M04 05 Sep 03:39:22 03:48:04 74° 283° (WNW) 03:56:51
VERMONT LUNAR 05 Sep 03:40:28 03:42:14 15° 173° (S) 03:44:00 437.305
ITAMSAT 1 05 Sep 03:41:08 03:46:17 59° 102° (ESE) 03:51:24 435.822/435.867
KKS-1 05 Sep 03:46:08 03:50:29 50° 260° (W) 03:54:53 437.445
Gurwin Techsat 1B 05 Sep 03:51:09 03:56:30 87° 101° (E) 04:01:50 435.225
AO-7 05 Sep 03:52:57 03:58:59 23° 87° (E) 04:05:19 29.400- 29.500
O/OREOS (USA 219) 05 Sep 04:03:12 04:07:50 77° 61° (ENE) 04:12:26 437.305
Oscar 19 05 Sep 04:11:39 04:15:57 26° 299° (WNW) 04:20:08 437.125/150
JAS-2 05 Sep 04:12:55 04:19:55 69° 101° (E) 04:26:01 435.910
SO-50 05 Sep 04:20:47 04:23:38 15° 350° (N) 04:26:27 436.795
MOZHAYETS 4 05 Sep 04:33:00 04:37:36 80° 75° (ENE) 04:42:14
HORYU 2 05 Sep 04:45:20 04:49:24 34° 96° (E) 04:53:28 437.375
STARS 05 Sep 04:53:02 04:56:20 20° 270° (W) 04:59:32 437.465
Cosmos 2499 05 Sep 05:00:41 05:09:23 79° 282° (WNW) 05:18:22 435.465 / 435.565
CUBESAT XI-V 05 Sep 05:04:45 05:08:01 20° 61° (ENE) 05:11:25 437.345
PCSat 05 Sep 05:12:26 05:15:09 14° 346° (NNW) 05:17:48 145.827
VERMONT LUNAR 05 Sep 05:16:19 05:17:57 14° 190° (S) 05:19:35 437.305
STRAND 1 05 Sep 05:16:44 05:17:52 11° 51° (NE) 05:19:14 437.568
ITAMSAT 1 05 Sep 05:21:17 05:25:26 24° 300° (WNW) 05:29:30 435.822/435.867
Gurwin Techsat 1B 05 Sep 05:32:18 05:35:52 18° 304° (WNW) 05:39:17 435.225
GONETS M04 05 Sep 05:40:38 05:46:52 20° 309° (NW) 05:52:49
O/OREOS (USA 219) 05 Sep 05:44:06 05:46:43 15° 260° (W) 05:49:09 437.305
AO-7 05 Sep 05:44:42 05:53:05 89° 111° (ESE) 06:01:23 29.400- 29.500
PHONESAT 2.4 05 Sep 05:56:03 05:58:25 18° 172° (S) 06:00:47 2401.200-2431.200
JAS-2 05 Sep 05:58:33 06:04:24 28° 304° (NW) 06:09:36 435.910
Cubesat XI-IV 05 Sep 06:00:13 06:01:17 11° 82° (E) 06:02:41 437.490
SO-50 05 Sep 06:03:03 06:06:05 16° 14° (NNE) 06:09:09 436.795
MOZHAYETS 4 05 Sep 06:13:02 06:15:29 14° 274° (W) 06:17:45
HORYU 2 05 Sep 06:22:03 06:26:00 31° 295° (WNW) 06:29:52 437.375
PRISM 05 Sep 06:35:15 06:38:39 26° 65° (ENE) 06:42:05 437.425
CUBESAT XI-V 05 Sep 06:40:34 06:45:06 59° 260° (W) 06:49:40 437.345
CUTE-I 05 Sep 06:41:12 06:45:30 25° 91° (E) 06:49:53 437.470
STRAND 1 05 Sep 06:51:09 06:56:08 57° 69° (ENE) 07:01:08 437.568
Cosmos 2499 05 Sep 06:57:32 07:04:17 23° 307° (NW) 07:10:50 435.465 / 435.565
PCSat 05 Sep 06:58:28 07:00:57 13° 12° (NNE) 07:03:31 145.827
YUBILEINY 05 Sep 06:59:43 07:07:37 36° 63° (ENE) 07:15:35 435.215
ISS 05 Sep 07:17:03 07:18:40 13° 138° (SE) 07:20:21 145.825
AIST 1 05 Sep 07:17:18 07:20:30 21° 88° (E) 07:23:48
BRITE-PL 05 Sep 07:18:14 07:21:04 14° 83° (E) 07:24:11 437.365/2234.400
PHONESAT 2.4 05 Sep 07:33:18 07:35:36 17° 189° (S) 07:37:54 2401.200-2431.200
Cubesat XI-IV 05 Sep 07:37:10 07:42:31 70° 102° (ESE) 07:47:51 437.490
AO-7 05 Sep 07:38:16 07:45:04 29° 311° (NW) 07:51:41 29.400- 29.500
SO-50 05 Sep 07:43:23 07:48:00 37° 37° (NE) 07:52:34 436.795
Cosmos 2491 05 Sep 07:56:00 08:03:00 29° 81° (E) 08:10:13 435.465 / 435.565
PRISM 05 Sep 08:10:12 08:13:58 35° 263° (W) 08:17:44 437.425
CUTE-I 05 Sep 08:20:44 08:25:57 55° 291° (WNW) 08:31:08 437.470
STRAND 1 05 Sep 08:31:43 08:35:44 22° 269° (W) 08:39:40 437.568
PCSat 05 Sep 08:41:31 08:46:14 29° 37° (NE) 08:50:58 145.827
DOVE 4 05 Sep 08:47:30 08:52:08 30° 92° (E) 08:56:46 437.250
CUSAT 1 05 Sep 08:50:20 08:55:56 22° 54° (NE) 09:02:03 437.405
ISS 05 Sep 08:51:21 08:54:35 61° 155° (SSE) 08:57:49 145.825
AIST 1 05 Sep 08:53:53 08:57:55 40° 286° (WNW) 09:01:59
BRITE-PL 05 Sep 08:54:51 09:00:27 81° 102° (ESE) 09:06:12 437.365/2234.400
UNISAT 6 05 Sep 08:55:16 08:56:07 11° 54° (NE) 08:57:11 437.425
YUBILEINY 05 Sep 08:56:24 09:05:09 65° 267° (W) 09:13:47 435.215
CINEMA 3 05 Sep 08:57:00 09:00:06 17° 86° (E) 09:03:18 145.822/145.860
GOMX 1 05 Sep 08:58:10 09:03:36 56° 99° (E) 09:09:00 467.674
Cosmos 2504 05 Sep 09:07:58 09:15:17 32° 61° (ENE) 09:22:23 435.465 / 435.565
CUTE 1.7 + AOD 2 05 Sep 09:08:21 09:11:56 27° 93° (E) 09:15:33 437.475
Cubesat XI-IV 05 Sep 09:18:08 09:22:10 22° 302° (WNW) 09:26:06 437.490
TIGRISAT 05 Sep 09:19:25 09:22:16 17° 59° (ENE) 09:25:16 435.000
HO-68 05 Sep 09:19:56 09:26:44 43° 97° (E) 09:33:33 435.675
CANX-2 05 Sep 09:22:55 09:26:56 41° 98° (E) 09:30:56 2200.000
SO-50 05 Sep 09:23:56 09:28:43 48° 238° (WSW) 09:33:22 436.795
AO-7 05 Sep 09:33:55 09:35:08 10° 337° (NNW) 09:36:08 29.400- 29.500
SEEDS 05 Sep 09:35:12 09:39:09 40° 97° (E) 09:43:05 437.485
ANTELSAT 05 Sep 09:37:42 09:41:24 24° 63° (ENE) 09:45:09 437.575/2403.000
AUBIESAT-1 05 Sep 09:44:59 09:48:53 28° 59° (ENE) 09:52:42 437.475
UWE-3 05 Sep 09:46:20 09:49:11 17° 87° (E) 09:52:08 435.000/436.395/437.385
COMPASS 1 05 Sep 09:48:29 09:52:28 43° 98° (E) 09:56:26 437.405
CUBEBUG 2 05 Sep 09:49:39 09:53:18 23° 90° (E) 09:56:56 437.445
Cosmos 2491 05 Sep 09:50:29 09:59:11 73° 283° (WNW) 10:07:56 435.465 / 435.565
AAUSAT CUBESAT 2 05 Sep 09:54:08 09:58:04 42° 97° (E) 10:02:00 437.432
DANDE 05 Sep 09:54:48 10:01:43 36° 64° (ENE) 10:09:28 436.750
M-CUBED/EXP-1 PRIME 05 Sep 09:54:53 09:59:15 38° 62° (ENE) 10:03:29 437.505
CUTE-I 05 Sep 10:03:27 10:05:01 11° 310° (NW) 10:06:21 437.470
Oscar 11 05 Sep 10:08:51 10:12:36 29° 94° (E) 10:16:22 145.826/435.025
BUGSAT 1 05 Sep 10:20:18 10:22:22 14° 59° (ENE) 10:24:34 437.445
PCSat 05 Sep 10:24:43 10:30:08 69° 239° (WSW) 10:35:32 145.827
DOVE 4 05 Sep 10:24:57 10:30:03 46° 291° (WNW) 10:35:03 437.250
UNISAT 6 05 Sep 10:27:23 10:32:03 62° 71° (ENE) 10:36:43 437.425
ISS 05 Sep 10:27:50 10:31:03 56° 354° (N) 10:34:17 145.825
CUSAT 1 05 Sep 10:31:57 10:39:53 73° 75° (ENE) 10:48:07 437.405
CINEMA 3 05 Sep 10:32:54 10:37:55 74° 286° (WNW) 10:42:46 145.822/145.860
DUCHIFAT 1 05 Sep 10:33:47 10:37:20 27° 65° (ENE) 10:40:59 145.980
BRITE-PL 05 Sep 10:34:20 10:38:26 21° 300° (WNW) 10:42:28 437.365/2234.400
GOMX 1 05 Sep 10:36:48 10:41:24 28° 297° (WNW) 10:45:56 467.674
POLYITAN 1 05 Sep 10:37:22 10:41:07 31° 66° (ENE) 10:44:57 437.675
POPSAT HIP 1 05 Sep 10:37:53 10:41:36 30° 66° (ENE) 10:45:24 437.405
CUTE 1.7 + AOD 2 05 Sep 10:44:03 10:47:55 34° 292° (WNW) 10:51:43 437.475
NANOSAT C BR1 05 Sep 10:52:44 10:56:43 41° 69° (ENE) 11:00:46 145.865
TIGRISAT 05 Sep 10:53:44 10:58:27 81° 255° (WSW) 11:03:12 435.000
YUBILEINY 05 Sep 10:55:41 11:00:20 15° 288° (WNW) 11:04:29 435.215
QB50P2 05 Sep 10:55:49 10:59:53 46° 70° (ENE) 11:04:02 145.880/145.840
CANX-2 05 Sep 10:59:15 11:02:40 24° 295° (WNW) 11:06:00 2200.000
Cosmos 2504 05 Sep 10:59:55 11:08:23 71° 265° (W) 11:16:16 435.465 / 435.565
ZACube-1 05 Sep 11:03:00 11:07:30 67° 101° (E) 11:11:51 437.345
HUMSAT D 05 Sep 11:05:26 11:09:08 29° 94° (E) 11:12:49 437.325/437.525
FUNcube-1 05 Sep 11:05:58 11:10:28 70° 102° (ESE) 11:14:49 145.935
HO-68 05 Sep 11:07:44 11:14:35 48° 298° (WNW) 11:21:22 435.675
QB50P1 05 Sep 11:08:25 11:12:36 59° 72° (ENE) 11:16:51 145.935-145.965
SEEDS 05 Sep 11:11:21 11:14:46 24° 295° (WNW) 11:18:05 437.485
ANTELSAT 05 Sep 11:13:16 11:17:53 52° 261° (W) 11:22:30 437.575/2403.000
DELFI C3 05 Sep 11:16:35 11:20:36 87° 285° (WNW) 11:24:35 145.870
AUBIESAT-1 05 Sep 11:18:53 11:23:24 45° 255° (WSW) 11:27:46 437.475
50 SAT 05 Sep 11:19:13 11:21:44 17° 90° (E) 11:24:20 437.505
VELOX 1 05 Sep 11:19:53 11:22:41 17° 89° (E) 11:25:37 145.980
UWE-3 05 Sep 11:21:40 11:26:14 64° 287° (WNW) 11:30:38 435.000/436.395/437.385
COMPASS 1 05 Sep 11:24:39 11:27:54 22° 296° (WNW) 11:31:04 437.405
CUBEBUG 2 05 Sep 11:25:45 11:30:16 48° 290° (WNW) 11:34:37 437.445
M-CUBED/EXP-1 PRIME 05 Sep 11:29:42 11:34:01 33° 259° (W) 11:38:10 437.505
AAUSAT CUBESAT 2 05 Sep 11:30:11 11:33:28 22° 296° (WNW) 11:36:38 437.432
DANDE 05 Sep 11:37:39 11:45:22 68° 263° (W) 11:53:48 436.750
Oscar 11 05 Sep 11:44:54 11:48:50 34° 293° (WNW) 11:52:41 145.826/435.025
DX 1 05 Sep 11:45:24 11:49:34 41° 98° (E) 11:53:44 434.975-435.025
GONETS M04 05 Sep 11:48:21 11:54:16 20° 51° (NE) 12:00:33
UKube-1 05 Sep 11:49:42 11:53:50 41° 98° (E) 11:57:57 .
Cosmos 2491 05 Sep 11:51:49 11:58:00 20° 309° (NW) 12:03:54 435.465 / 435.565
BUGSAT 1 05 Sep 11:53:09 11:57:16 79° 256° (WSW) 12:01:29 437.445
ISS 05 Sep 12:04:25 12:07:41 71° 15° (NNE) 12:10:57 145.825
UNISAT 6 05 Sep 12:05:52 12:09:15 19° 271° (W) 12:12:30 437.425
DUCHIFAT 1 05 Sep 12:09:04 12:13:01 36° 263° (W) 12:17:00 145.980
PCSat 05 Sep 12:10:39 12:12:42 12° 256° (WSW) 12:14:26 145.827
CINEMA 3 05 Sep 12:11:52 12:14:17 13° 305° (NW) 12:16:29 145.822/145.860
CUBEBUG 1 05 Sep 12:12:57 12:17:00 34° 96° (E) 12:21:05 437.445
POLYITAN 1 05 Sep 12:13:06 12:16:59 32° 265° (W) 12:20:52 437.675
POPSAT HIP 1 05 Sep 12:13:34 12:17:26 32° 265° (W) 12:21:19 437.405
CUSAT 1 05 Sep 12:15:08 12:22:00 32° 273° (W) 12:28:52 437.405
Oscar 19 05 Sep 12:15:21 12:19:05 21° 59° (ENE) 12:22:56 437.125/150
AISAT 05 Sep 12:28:31 12:33:03 76° 102° (ESE) 12:37:32 437.250
NANOSAT C BR1 05 Sep 12:29:14 12:32:43 23° 268° (W) 12:36:09 145.865
QB50P2 05 Sep 12:32:42 12:36:02 21° 269° (W) 12:39:17 145.880/145.840
TISAT 1 05 Sep 12:33:18 12:34:23 11° 85° (E) 12:35:41 437.305
TIGRISAT 05 Sep 12:34:35 12:36:03 11° 277° (W) 12:37:16 435.000
ESTCUBE 1 05 Sep 12:34:41 12:39:12 66° 102° (ESE) 12:43:41 437.505/2401.250
ZACube-1 05 Sep 12:40:23 12:43:23 17° 300° (WNW) 12:46:13 437.345
HUMSAT D 05 Sep 12:41:05 12:44:52 32° 293° (WNW) 12:48:34 437.325/437.525
FUNcube-1 05 Sep 12:43:22 12:46:17 17° 300° (WNW) 12:49:01 145.935
QB50P1 05 Sep 12:46:06 12:48:54 16° 271° (W) 12:51:35 145.935-145.965
JAS-2 05 Sep 12:46:52 12:51:03 16° 46° (NE) 12:55:27 435.910
50 SAT 05 Sep 12:52:48 12:56:32 46° 289° (WNW) 13:00:13 437.505
DELFI C3 05 Sep 12:53:47 12:55:03 11° 302° (WNW) 12:56:08 145.870
Cosmos 2504 05 Sep 12:54:07 12:59:06 17° 287° (WNW) 13:03:33 435.465 / 435.565
VELOX 1 05 Sep 12:55:15 12:59:42 64° 288° (WNW) 13:04:07 145.980
Cosmos 2499 05 Sep 12:55:48 13:00:10 15° 44° (NE) 13:04:46 435.465 / 435.565
HO-68 05 Sep 12:57:24 13:00:45 14° 320° (NW) 13:03:50 435.675
UWE-3 05 Sep 13:01:02 13:01:53 10° 306° (NW) 13:02:32 435.000/436.395/437.385
AO-7 05 Sep 13:08:37 13:12:57 16° 35° (NE) 13:17:33 29.400- 29.500
DX 1 05 Sep 13:21:59 13:25:39 26° 296° (WNW) 13:29:14 434.975-435.025
DANDE 05 Sep 13:22:37 13:27:33 17° 280° (W) 13:32:18 436.750
SPROUT 05 Sep 13:23:39 13:27:58 59° 100° (E) 13:32:15 437.525
ITAMSAT 1 05 Sep 13:25:31 13:29:28 23° 60° (ENE) 13:33:33 435.822/435.867
UKube-1 05 Sep 13:26:11 13:29:47 25° 296° (WNW) 13:33:20 .
Gurwin Techsat 1B 05 Sep 13:37:27 13:42:09 34° 64° (ENE) 13:46:55 435.225
ISS 05 Sep 13:40:58 13:43:57 33° 213° (SSW) 13:46:55 145.825
ITUPSAT 1 05 Sep 13:43:40 13:45:01 11° 84° (E) 13:46:39 437.325
GONETS M04 05 Sep 13:44:17 13:53:07 72° 77° (ENE) 14:01:58
CUBEBUG 1 05 Sep 13:49:24 13:53:18 30° 294° (WNW) 13:57:09 437.445
Oscar 19 05 Sep 13:52:47 13:57:58 71° 257° (WSW) 14:03:12 437.125/150
AISAT 05 Sep 14:06:16 14:09:06 16° 301° (WNW) 14:11:48 437.250
TISAT 1 05 Sep 14:06:33 14:10:51 89° 285° (WNW) 14:15:08 437.305
BEESAT 05 Sep 14:11:42 14:15:16 21° 91° (E) 14:18:58 436.000
BEESAT 3 05 Sep 14:12:22 14:16:07 37° 121° (ESE) 14:19:55 437.485
ESTCUBE 1 05 Sep 14:12:33 14:15:38 18° 300° (WNW) 14:18:36 437.505/2401.250
JAS-2 05 Sep 14:27:07 14:34:39 54° 66° (ENE) 14:42:07 435.910
BEESAT 2 05 Sep 14:32:19 14:36:13 44° 122° (ESE) 14:40:10 435.950
VELOX 1 05 Sep 14:34:52 14:35:27 10° 306° (NW) 14:35:49 145.980
RS-15 05 Sep 14:35:26 14:43:28 26° 103° (ESE) 14:52:09 29.354- 29.394
SWISSCUBE 05 Sep 14:37:55 14:42:23 39° 97° (E) 14:46:51 437.505
Cosmos 2499 05 Sep 14:47:30 14:55:58 54° 71° (ENE) 15:03:52 435.465 / 435.565
AO-7 05 Sep 14:56:06 15:03:53 47° 58° (ENE) 15:11:45 29.400- 29.500
SPROUT 05 Sep 15:00:35 15:03:40 19° 299° (WNW) 15:06:37 437.525
ITAMSAT 1 05 Sep 15:03:30 15:08:37 62° 258° (WSW) 15:13:46 435.822/435.867
Gurwin Techsat 1B 05 Sep 15:17:02 15:22:04 41° 263° (W) 15:27:06 435.225
ITUPSAT 1 05 Sep 15:18:59 15:23:48 82° 106° (ESE) 15:28:34 437.325
KKS-1 05 Sep 15:33:19 15:36:55 23° 92° (E) 15:40:34 437.445
Oscar 19 05 Sep 15:37:04 15:38:25 11° 278° (W) 15:39:25 437.125/150
GONETS M04 05 Sep 15:41:57 15:49:20 30° 278° (W) 15:56:32
TISAT 1 05 Sep 15:44:02 15:46:00 13° 302° (WNW) 15:47:49 437.305
AIST 2 05 Sep 15:45:15 15:49:21 50° 123° (ESE) 15:53:29 435.215
HORYU 2 05 Sep 15:47:15 15:51:38 53° 70° (ENE) 15:56:03 437.375
BEESAT 05 Sep 15:48:49 15:53:29 54° 290° (WNW) 15:58:07 436.000
BEESAT 3 05 Sep 15:50:19 15:54:04 34° 320° (NW) 15:57:49 437.485
BEESAT 2 05 Sep 16:10:42 16:14:23 30° 322° (NW) 16:18:04 435.950
JAS-2 05 Sep 16:12:27 16:19:51 43° 266° (W) 16:27:07 435.910
SWISSCUBE 05 Sep 16:15:58 16:20:08 30° 296° (WNW) 16:24:15 437.505
MOZHAYETS 4 05 Sep 16:25:20 16:27:41 14° 86° (E) 16:30:12
CUTE-I 05 Sep 16:31:17 16:33:05 12° 51° (NE) 16:35:06 437.470
STARS 05 Sep 16:36:52 16:41:17 58° 101° (E) 16:45:40 437.465
Cosmos 2499 05 Sep 16:41:04 16:48:58 41° 274° (W) 16:56:17 435.465 / 435.565
RS-15 05 Sep 16:43:19 16:54:18 84° 126° (SE) 17:05:51 29.354- 29.394
AO-7 05 Sep 16:48:37 16:56:43 51° 260° (W) 17:04:47 29.400- 29.500
ITUPSAT 1 05 Sep 16:58:07 17:01:07 16° 303° (WNW) 17:03:59 437.325
KKS-1 05 Sep 17:09:28 17:13:46 45° 291° (WNW) 17:18:02 437.445
AIST 2 05 Sep 17:24:23 17:28:08 29° 323° (NW) 17:31:52 435.215
Cubesat XI-IV 05 Sep 17:24:39 17:29:08 29° 62° (ENE) 17:33:42 437.490
HORYU 2 05 Sep 17:25:15 17:28:37 20° 269° (W) 17:31:53 437.375
BEESAT 3 05 Sep 17:31:33 17:33:09 12° 343° (NNW) 17:34:42 437.485
BEESAT 2 05 Sep 17:52:17 17:53:40 11° 345° (NNW) 17:55:00 435.950
Cosmos 2491 05 Sep 17:59:33 18:05:27 20° 51° (NE) 18:11:39 435.465 / 435.565
MOZHAYETS 4 05 Sep 18:00:57 18:05:32 76° 286° (WNW) 18:10:05
CUTE-I 05 Sep 18:07:00 18:12:12 60° 70° (ENE) 18:17:27 437.470
HO-68 05 Sep 18:09:57 18:13:17 14° 41° (NE) 18:16:54 435.675
STARS 05 Sep 18:14:05 18:17:22 20° 299° (WNW) 18:20:31 437.465
O/OREOS (USA 219) 05 Sep 18:19:42 18:23:55 39° 108° (ESE) 18:28:12 437.305
CUBESAT XI-V 05 Sep 18:33:12 18:37:04 26° 92° (E) 18:41:01 437.345
BRITE-PL 05 Sep 18:33:18 18:36:45 21° 59° (ENE) 18:40:30 437.365/2234.400
GOMX 1 05 Sep 18:35:06 18:37:47 15° 55° (NE) 18:40:42 467.674
AIST 1 05 Sep 18:56:08 19:00:29 75° 79° (E) 19:04:51
RS-15 05 Sep 18:57:21 19:08:01 46° 336° (NNW) 19:19:08 29.354- 29.394
STRAND 1 05 Sep 18:58:56 19:01:23 14° 85° (E) 19:04:05 437.568
Cubesat XI-IV 05 Sep 19:03:53 19:09:03 50° 261° (W) 19:14:13 437.490
AIST 2 05 Sep 19:06:30 19:08:01 12° 346° (NNW) 19:09:29 435.215
MOZHAYETS 4 05 Sep 19:40:12 19:42:02 12° 304° (NW) 19:43:41
PRISM 05 Sep 19:48:07 19:51:23 23° 93° (E) 19:54:43 437.425
CUTE-I 05 Sep 19:48:32 19:52:44 23° 270° (W) 19:56:50 437.470
HO-68 05 Sep 19:52:42 19:59:31 50° 63° (ENE) 20:06:26 435.675
Cosmos 2491 05 Sep 19:55:30 20:04:16 72° 77° (ENE) 20:13:04 435.465 / 435.565
DOVE 4 05 Sep 19:56:50 20:01:24 43° 68° (ENE) 20:06:16 437.250
O/OREOS (USA 219) 05 Sep 19:59:21 20:03:26 31° 308° (NW) 20:07:32 437.305
CINEMA 3 05 Sep 20:02:15 20:06:10 25° 63° (ENE) 20:10:16 145.822/145.860
CUTE 1.7 + AOD 2 05 Sep 20:05:01 20:08:51 33° 68° (ENE) 20:12:43 437.475
